Location: Niedergestelen
(46.3129°N, 7.7822°E)
Time: 11:39:30
(UTC+00:00)

Tiangong - Visible Passes

Search period start: 27 September 2021 00:00
Search period end: 07 October 2021 00:00
Orbit: 382 x 385 km, 41.5° (Epoch: 26 September)

Date Brightness Start Highest point End Pass type
(mag) Time Alt. Az. Time Alt. Az. Time Alt. Az.
27 Sep 3.2 04:36:11 10° SSW 04:38:36 20° SSE 04:41:02 10° ESE visible
28 Sep 3.5 03:38:23 14° SSE 03:38:53 15° SSE 03:40:44 10° ESE visible
29 Sep 2.7 04:13:37 16° SW 04:15:22 26° SSE 04:18:04 10° ESE visible
30 Sep 3.5 03:16:35 17° SE 03:16:35 17° SE 03:18:00 10° ESE visible
30 Sep 2.3 04:49:04 10° WSW 04:51:57 33° S 04:54:52 10° ESE visible
01 Oct 2.2 03:51:43 30° S 03:52:07 31° S 03:54:58 10° ESE visible
02 Oct 4.2 02:54:39 12° ESE 02:54:39 12° ESE 02:55:00 10° ESE visible
02 Oct 2.2 04:26:51 17° WSW 04:28:43 33° S 04:31:36 10° ESE visible
03 Oct 2.7 03:29:47 27° SE 03:29:47 27° SE 03:31:45 10° ESE visible
04 Oct 2.2 04:04:56 27° SSW 04:05:26 29° S 04:08:13 10° SE visible
05 Oct 4.0 03:07:56 13° ESE 03:07:56 13° ESE 03:08:26 10° ESE visible
05 Oct 3.0 04:40:08 12° WSW 04:41:53 18° SSW 04:44:08 10° SSE visible
06 Oct 3.1 03:43:11 19° SSE 03:43:11 19° SSE 03:44:40 10° SE visible
